217P/LINEAR (2025)

Japanese version
Home page
Updated on January 31, 2026

---------------------------------------------------------------------

* Profile

* Pictures

* Orbital Elements

Epoch 2025 May 5.0 TT = JDT 2460800.5
T 2025 May 24.94406 TT                                  Pike
q   1.2263740            (2000.0)            P               Q
n   0.12582731     Peri.  247.03580     +0.95779637     -0.22284773
a   3.9441442      Node   125.37158     +0.26640549     +0.92540809
e   0.6890646      Incl.   12.86548     -0.10795477     +0.30652692
P   7.83
From 3329 observations 2001 June 21-2025 Aug. 4, mean residual 0".6.
     Nongravitational parameters A1 = +0.17, A2 = +0.0030.

* Finding Charts

* Magnitudes Graph

        H = 14.0  G = 0.15                       [    ,-245]  (             - 2024 Sept.21)
        m1 = 9.5 + 5 log d + 16.0 log r(t - 20)  [-245, 245]  (2024 Sept.21 - 2026 Jan. 24)
        H = 14.0  G = 0.15                       [ 245,    ]  (2026 Jan. 24 -             )

---------------------------------------------------------------------

The orbital elements are published on M.P.E.C. 2025-P113.
The charts are made with StellaNavigator Ver.10 (AstroArts).
The magnitudes graphs are made with Comet for Windows.

---------------------------------------------------------------------

Copyright(C) Seiichi Yoshida (comet@aerith.net). All rights reserved.